sat.trackr.live / text

‹ back to catalog

STARLINK-2292

NORAD 48023 · 2021-024AY

PAYLOAD ACTIVE UNKNOWN

§ Identity

Operator
Country
US
Launch date
2021-03-24
Launch site
AFETR
Launch vehicle
Mass (kg)
RCS (m²)

Purposes: comms

External: N2YO · Heavens-Above · Gunter

§ Orbital elements

Epoch: 2026-05-24T22:59:51.777024Z

Period
93.45 min
Inclination
53.1200°
Eccentricity
0.0002170
Mean motion
15.41005948 rev/d
Perigee alt
441.7 km
Apogee alt
444.6 km
Semi-major
6,821.3 km
B*
1.1943e-3
RAAN
334.3358°
Arg perigee
204.6478°
Mean anomaly
155.4423°
Rev number
28,634

§ Raw data

STARLINK-22921 48023U 21024AY  26144.95823816  .00049934  00000+0  11943-2 0  99932 48023  53.1200 334.3358 0002170 204.6478 155.4423 15.41005948286344

JSON: /api/v1/satellites/48023 · /tle

For live sub-satellite position, see the globe view (requires WebGL).

§ Visibility from observer

Set your observer location to see the next 7 days of passes ≥ 10°. The values pass through the URL so the page stays shareable.

No JS? Fill the form by hand. The geolocation button needs JavaScript.